• In Uzbekistan
  • List of Countries
  • For 7 days
  • Water Temperature
  • Satellite Maps
  • Weather Map
  • Weather Widgets
  • user-avatar
    Login

    Hourly Weather Wiktoria

    Today, 29 March, Wednesday

    Time Temperature Precipitation Wind Pressure Humidity
    00:00 +13°C° 0 mm 0 mps 747 mmHg 72%
    01:00 +12°C° 0 mm 0 mps 746 mmHg 73%
    02:00 +12°C° 0 mm 0 mps 746 mmHg 73%
    03:00 +13°C° 0 mm 1 mps 746 mmHg 72%
    04:00 +14°C° 0 mm 1 mps 746 mmHg 77%
    05:00 +14°C° 0 mm 1 mps 746 mmHg 76%
    06:00 +14°C° 0 mm 1 mps 746 mmHg 74%
    07:00 +15°C° 0 mm 1 mps 746 mmHg 73%
    08:00 +18°C° 0 mm 1 mps 746 mmHg 63%
    09:00 +21°C° 0 mm 1 mps 746 mmHg 53%
    10:00 +24°C° 0 mm 2 mps 746 mmHg 44%
    11:00 +26°C° 0 mm 2 mps 745 mmHg 39%
    12:00 +27°C° 0 mm 2 mps 745 mmHg 35%
    13:00 +29°C° 0 mm 2 mps 744 mmHg 30%
    14:00 +29°C° 0 mm 3 mps 743 mmHg 29%
    15:00 +29°C° 0 mm 3 mps 743 mmHg 27%
    16:00 +30°C° 0 mm 3 mps 742 mmHg 25%
    17:00 +27°C° 0 mm 2 mps 742 mmHg 31%
    18:00 +25°C° 0 mm 2 mps 743 mmHg 37%
    19:00 +23°C° 0 mm 1 mps 743 mmHg 42%
    20:00 +21°C° 0 mm 2 mps 743 mmHg 48%
    21:00 +20°C° 0 mm 2 mps 744 mmHg 53%
    22:00 +19°C° 0 mm 2 mps 745 mmHg 58%
    23:00 +18°C° 0 mm 3 mps 745 mmHg 62%

    Tomorrow, 30 March, Thursday

    Time Temperature Precipitation Wind Pressure Humidity
    00:00 +17°C° 0 mm 3 mps 745 mmHg 66%
    01:00 +14°C° 0 mm 3 mps 746 mmHg 70%
    02:00 +14°C° 0 mm 3 mps 746 mmHg 68%
    03:00 +13°C° 0 mm 3 mps 747 mmHg 67%
    04:00 +13°C° 0 mm 3 mps 747 mmHg 66%
    05:00 +13°C° 0 mm 3 mps 748 mmHg 68%
    06:00 +12°C° 0 mm 3 mps 748 mmHg 69%
    07:00 +12°C° 0 mm 3 mps 749 mmHg 71%
    08:00 +13°C° 0 mm 3 mps 749 mmHg 63%
    09:00 +14°C° 0 mm 3 mps 750 mmHg 56%
    10:00 +17°C° 0 mm 3 mps 750 mmHg 48%
    11:00 +18°C° 0 mm 3 mps 750 mmHg 44%
    12:00 +19°C° 0 mm 3 mps 750 mmHg 40%
    13:00 +20°C° 0 mm 4 mps 750 mmHg 36%
    14:00 +20°C° 0 mm 4 mps 750 mmHg 37%
    15:00 +20°C° 0 mm 4 mps 750 mmHg 37%
    16:00 +19°C° 0 mm 4 mps 749 mmHg 38%
    17:00 +18°C° 0 mm 3 mps 750 mmHg 43%
    18:00 +16°C° 0 mm 3 mps 751 mmHg 48%
    19:00 +15°C° 0 mm 2 mps 752 mmHg 53%
    20:00 +14°C° 0 mm 2 mps 752 mmHg 58%
    21:00 +13°C° 0 mm 2 mps 753 mmHg 63%
    22:00 +12°C° 0 mm 2 mps 754 mmHg 68%
    23:00 +12°C° 0 mm 2 mps 753 mmHg 71%

    Day after tomorrow, 31 March, Friday

    Time Temperature Precipitation Wind Pressure Humidity
    00:00 +11°C° 0 mm 1 mps 753 mmHg 75%
    01:00 +11°C° 0 mm 1 mps 753 mmHg 78%
    02:00 +10°C° 0 mm 1 mps 753 mmHg 81%
    03:00 +10°C° 0 mm 1 mps 753 mmHg 83%
    04:00 +10°C° 0 mm 1 mps 753 mmHg 85%
    05:00 +9°C° 0 mm 1 mps 753 mmHg 86%
    06:00 +9°C° 0 mm 1 mps 753 mmHg 88%
    07:00 +9°C° 0 mm 1 mps 754 mmHg 89%
    08:00 +11°C° 0 mm 1 mps 754 mmHg 76%
    09:00 +14°C° 0 mm 1 mps 754 mmHg 64%
    10:00 +16°C° 0 mm 2 mps 754 mmHg 51%
    11:00 +17°C° 0 mm 2 mps 754 mmHg 47%
    12:00 +19°C° 0 mm 2 mps 753 mmHg 42%
    13:00 +20°C° 0 mm 2 mps 752 mmHg 37%
    14:00 +21°C° 0 mm 2 mps 752 mmHg 37%
    15:00 +21°C° 0 mm 2 mps 751 mmHg 37%
    16:00 +21°C° 0 mm 2 mps 751 mmHg 36%
    17:00 +19°C° 0 mm 2 mps 751 mmHg 43%
    18:00 +18°C° 0 mm 1 mps 751 mmHg 51%
    19:00 +15°C° 0 mm 1 mps 752 mmHg 58%
    20:00 +14°C° 0 mm 1 mps 752 mmHg 63%
    21:00 +13°C° 0 mm 1 mps 752 mmHg 67%
    22:00 +12°C° 0 mm 1 mps 753 mmHg 72%
    23:00 +12°C° 0 mm 1 mps 753 mmHg 75%

    1 April, Saturday

    Time Temperature Precipitation Wind Pressure Humidity
    00:00 +11°C° 0 mm 1 mps 753 mmHg 78%
    01:00 +10°C° 0 mm 1 mps 752 mmHg 81%
    02:00 +10°C° 0 mm 1 mps 752 mmHg 82%
    03:00 +10°C° 0 mm 1 mps 752 mmHg 84%
    04:00 +9°C° 0 mm 1 mps 752 mmHg 85%
    05:00 +9°C° 0 mm 1 mps 752 mmHg 85%
    06:00 +9°C° 0 mm 1 mps 753 mmHg 85%
    07:00 +9°C° 0 mm 1 mps 753 mmHg 85%
    08:00 +12°C° 0 mm 1 mps 753 mmHg 74%
    09:00 +14°C° 0 mm 1 mps 754 mmHg 62%
    10:00 +17°C° 0 mm 2 mps 754 mmHg 51%
    11:00 +18°C° 0 mm 2 mps 754 mmHg 49%
    12:00 +19°C° 0 mm 2 mps 754 mmHg 47%
    13:00 +21°C° 0 mm 2 mps 753 mmHg 46%
    14:00 +20°C° 0 mm 2 mps 753 mmHg 47%
    15:00 +20°C° 0 mm 2 mps 753 mmHg 48%
    16:00 +20°C° 0 mm 3 mps 753 mmHg 49%
    17:00 +18°C° 0 mm 2 mps 754 mmHg 53%
    18:00 +17°C° 0 mm 2 mps 755 mmHg 57%
    19:00 +15°C° 0 mm 2 mps 755 mmHg 60%
    20:00 +14°C° 0 mm 2 mps 756 mmHg 65%
    21:00 +13°C° 0 mm 2 mps 756 mmHg 70%
    22:00 +12°C° 0 mm 2 mps 757 mmHg 74%
    23:00 +10°C° 0 mm 2 mps 757 mmHg 76%

    2 April, Sunday

    Time Temperature Precipitation Wind Pressure Humidity
    00:00 +10°C° 0 mm 2 mps 757 mmHg 78%
    01:00 +9°C° 0 mm 2 mps 757 mmHg 80%
    02:00 +9°C° 0 mm 2 mps 757 mmHg 81%
    03:00 +9°C° 0 mm 2 mps 758 mmHg 82%
    04:00 +10°C° 0 mm 1 mps 758 mmHg 83%
    05:00 +9°C° 0 mm 1 mps 758 mmHg 84%
    06:00 +9°C° 0 mm 1 mps 759 mmHg 85%
    07:00 +9°C° 0 mm 1 mps 759 mmHg 86%
    08:00 +12°C° 0 mm 2 mps 759 mmHg 73%
    09:00 +14°C° 0 mm 2 mps 759 mmHg 61%
    10:00 +16°C° 0 mm 2 mps 760 mmHg 48%
    11:00 +18°C° 0 mm 2 mps 759 mmHg 44%
    12:00 +19°C° 0 mm 2 mps 759 mmHg 39%
    13:00 +20°C° 0 mm 2 mps 759 mmHg 34%
    14:00 +21°C° 0 mm 2 mps 759 mmHg 34%
    15:00 +21°C° 0 mm 2 mps 758 mmHg 35%
    16:00 +21°C° 0 mm 2 mps 758 mmHg 35%
    17:00 +19°C° 0 mm 2 mps 759 mmHg 42%
    18:00 +17°C° 0 mm 2 mps 759 mmHg 49%
    19:00 +15°C° 0 mm 2 mps 760 mmHg 55%
    20:00 +15°C° 0 mm 2 mps 760 mmHg 60%
    21:00 +14°C° 0 mm 2 mps 760 mmHg 64%
    22:00 +13°C° 0 mm 2 mps 761 mmHg 68%
    23:00 +12°C° 0 mm 2 mps 761 mmHg 71%

    3 April, Monday

    Time Temperature Precipitation Wind Pressure Humidity
    00:00 +10°C° 0 mm 2 mps 761 mmHg 74%
    01:00 +11°C° 0 mm 1 mps 761 mmHg 77%
    02:00 +10°C° 0 mm 1 mps 761 mmHg 79%
    03:00 +10°C° 0 mm 1 mps 761 mmHg 80%
    04:00 +10°C° 0 mm 1 mps 761 mmHg 81%
    05:00 +10°C° 0 mm 1 mps 761 mmHg 80%
    06:00 +10°C° 0 mm 1 mps 761 mmHg 79%
    07:00 +10°C° 0 mm 1 mps 762 mmHg 78%
    08:00 +12°C° 0 mm 1 mps 762 mmHg 70%
    09:00 +14°C° 0 mm 1 mps 762 mmHg 61%
    10:00 +16°C° 0 mm 1 mps 762 mmHg 52%
    11:00 +19°C° 0 mm 1 mps 761 mmHg 47%
    12:00 +22°C° 0 mm 1 mps 761 mmHg 43%
    13:00 +24°C° 0 mm 1 mps 760 mmHg 39%
    14:00 +24°C° 0 mm 1 mps 760 mmHg 38%
    15:00 +23°C° 0 mm 1 mps 759 mmHg 38%
    16:00 +23°C° 0 mm 1 mps 759 mmHg 38%
    17:00 +21°C° 0 mm 1 mps 759 mmHg 43%
    18:00 +19°C° 0 mm 1 mps 760 mmHg 49%
    19:00 +16°C° 0 mm 1 mps 760 mmHg 55%
    20:00 +16°C° 0 mm 1 mps 760 mmHg 58%
    21:00 +15°C° 0 mm 1 mps 760 mmHg 61%
    22:00 +14°C° 0 mm 1 mps 760 mmHg 65%
    23:00 +13°C° 0 mm 1 mps 760 mmHg 67%
    Show more